Data No,UTC Date,UTC Time,Latitude,Longitude,Course(deg),Temp(degC),Sal(psu)
664,2024/2/3,11:03,35-35.82N,139-47.19E,219,11.004,
665,2024/2/3,11:04,35-35.62N,139-47.06E,197,10.947,
666,2024/2/3,11:05,35-35.41N,139-47.08E,164,10.872,
667,2024/2/3,11:06,35-35.21N,139-47.23E,142,10.942,
668,2024/2/3,11:07,35-35.05N,139-47.45E,129,11.005,
669,2024/2/3,11:08,35-34.89N,139-47.69E,129,10.914,
670,2024/2/3,11:09,35-34.72N,139-47.94E,129,10.796,
671,2024/2/3,11:10,35-34.55N,139-48.20E,128,10.795,
672,2024/2/3,11:11,35-34.37N,139-48.48E,128,10.696,
673,2024/2/3,11:12,35-34.20N,139-48.74E,129,10.716,
674,2024/2/3,11:13,35-34.01N,139-49.02E,128,10.636,
675,2024/2/3,11:14,35-33.83N,139-49.30E,128,10.648,
676,2024/2/3,11:15,35-33.65N,139-49.58E,128,10.648,
677,2024/2/3,11:16,35-33.46N,139-49.87E,128,10.645,
678,2024/2/3,11:17,35-33.27N,139-50.15E,128,10.591,
679,2024/2/3,11:18,35-33.05N,139-50.40E,144,10.554,
680,2024/2/3,11:19,35-32.76N,139-50.50E,172,10.433,
681,2024/2/3,11:20,35-32.47N,139-50.53E,174,10.715,
682,2024/2/3,11:21,35-32.17N,139-50.56E,174,10.787,
683,2024/2/3,11:22,35-31.87N,139-50.60E,174,10.806,
684,2024/2/3,11:23,35-31.55N,139-50.63E,174,10.819,
685,2024/2/3,11:24,35-31.24N,139-50.66E,175,10.81,
686,2024/2/3,11:25,35-30.92N,139-50.70E,174,10.847,
687,2024/2/3,11:26,35-30.61N,139-50.73E,174,10.902,
688,2024/2/3,11:27,35-30.29N,139-50.77E,174,11.05,
689,2024/2/3,11:28,35-29.97N,139-50.78E,184,11.062,
690,2024/2/3,11:29,35-29.68N,139-50.60E,213,10.954,
691,2024/2/3,11:30,35-29.43N,139-50.37E,219,10.988,
692,2024/2/3,11:31,35-29.19N,139-50.09E,229,10.981,
693,2024/2/3,11:32,35-29.00N,139-49.77E,233,10.933,
694,2024/2/3,11:33,35-28.80N,139-49.46E,229,10.963,
695,2024/2/3,11:34,35-28.58N,139-49.14E,231,10.916,
696,2024/2/3,11:35,35-28.38N,139-48.83E,231,10.975,
697,2024/2/3,11:36,35-28.17N,139-48.51E,231,11.041,
698,2024/2/3,11:37,35-27.97N,139-48.17E,234,11.072,
699,2024/2/3,11:38,35-27.78N,139-47.85E,233,11.059,
700,2024/2/3,11:39,35-27.58N,139-47.51E,233,11.022,
701,2024/2/3,11:40,35-27.36N,139-47.24E,222,11.032,
702,2024/2/3,11:41,35-27.12N,139-46.97E,223,11.02,
703,2024/2/3,11:42,35-26.87N,139-46.68E,224,10.988,
704,2024/2/3,11:43,35-26.65N,139-46.40E,226,10.945,
705,2024/2/3,11:44,35-26.43N,139-46.08E,231,10.917,
706,2024/2/3,11:45,35-26.23N,139-45.77E,231,10.941,
707,2024/2/3,11:46,35-26.03N,139-45.45E,232,10.993,
708,2024/2/3,11:47,35-25.81N,139-45.12E,232,10.963,
709,2024/2/3,11:48,35-25.62N,139-44.80E,232,10.951,
710,2024/2/3,11:49,35-25.42N,139-44.47E,232,10.913,
711,2024/2/3,11:50,35-25.21N,139-44.14E,232,10.902,
712,2024/2/3,11:51,35-25.02N,139-43.83E,233,10.896,
713,2024/2/3,11:52,35-24.82N,139-43.50E,233,10.892,
714,2024/2/3,11:53,35-24.59N,139-43.23E,215,10.856,
715,2024/2/3,11:54,35-24.30N,139-43.07E,203,10.864,
716,2024/2/3,11:55,35-24.01N,139-42.92E,203,10.88,
717,2024/2/3,11:56,35-23.71N,139-42.76E,203,10.863,
718,2024/2/3,11:57,35-23.40N,139-42.59E,203,10.847,
719,2024/2/3,11:58,35-23.09N,139-42.42E,203,10.847,
720,2024/2/3,11:59,35-22.78N,139-42.36E,182,10.848,
721,2024/2/3,12:00,35-22.48N,139-42.36E,177,10.863,
722,2024/2/3,12:01,35-22.16N,139-42.38E,176,10.857,
723,2024/2/3,12:02,35-21.82N,139-42.41E,176,10.84,
724,2024/2/3,12:03,35-21.50N,139-42.43E,177,10.95,
725,2024/2/3,12:04,35-21.16N,139-42.44E,177,11.043,
726,2024/2/3,12:05,35-20.86N,139-42.46E,177,11.125,
727,2024/2/3,12:06,35-20.58N,139-42.48E,177,11.182,
728,2024/2/3,12:07,35-20.30N,139-42.49E,177,11.225,
729,2024/2/3,12:08,35-20.05N,139-42.51E,177,11.275,
730,2024/2/3,12:09,35-19.84N,139-42.53E,170,11.35,
731,2024/2/3,12:10,35-19.66N,139-42.64E,147,11.38,
732,2024/2/3,12:11,35-19.49N,139-42.79E,145,11.432,
733,2024/2/3,12:12,35-19.31N,139-42.94E,145,11.511,
734,2024/2/3,12:13,35-19.13N,139-43.09E,143,11.644,
735,2024/2/3,12:14,35-18.96N,139-43.25E,143,11.653,
736,2024/2/3,12:15,35-18.78N,139-43.41E,144,11.729,
737,2024/2/3,12:16,35-18.60N,139-43.57E,144,11.765,
738,2024/2/3,12:17,35-18.42N,139-43.72E,144,11.799,
739,2024/2/3,12:18,35-18.25N,139-43.87E,144,11.821,
740,2024/2/3,12:19,35-18.07N,139-44.02E,144,11.93,
741,2024/2/3,12:20,35-17.90N,139-44.17E,145,12.018,
742,2024/2/3,12:21,35-17.72N,139-44.32E,144,12.1,
743,2024/2/3,12:22,35-17.54N,139-44.47E,145,12.265,
744,2024/2/3,12:23,35-17.36N,139-44.62E,145,12.434,
745,2024/2/3,12:24,35-17.19N,139-44.77E,145,13.401,
746,2024/2/3,12:25,35-17.02N,139-44.91E,145,13.111,
747,2024/2/3,12:26,35-16.83N,139-45.06E,145,12.822,
748,2024/2/3,12:27,35-16.66N,139-45.21E,145,12.781,
749,2024/2/3,12:28,35-16.49N,139-45.35E,146,12.763,
750,2024/2/3,12:29,35-16.30N,139-45.51E,145,12.822,
751,2024/2/3,12:30,35-16.13N,139-45.66E,145,12.816,
752,2024/2/3,12:31,35-15.94N,139-45.81E,145,12.557,
753,2024/2/3,12:32,35-15.75N,139-45.97E,146,12.607,
754,2024/2/3,12:33,35-15.55N,139-46.08E,160,12.833,
755,2024/2/3,12:34,35-15.33N,139-46.11E,176,13.108,
756,2024/2/3,12:35,35-15.12N,139-46.13E,177,12.748,
757,2024/2/3,12:36,35-14.89N,139-46.14E,176,12.819,
758,2024/2/3,12:37,35-14.67N,139-46.15E,176,12.696,
759,2024/2/3,12:38,35-14.45N,139-46.17E,176,12.586,
760,2024/2/3,12:39,35-14.24N,139-46.18E,176,12.703,
761,2024/2/3,12:40,35-14.02N,139-46.20E,177,12.702,
762,2024/2/3,12:41,35-13.80N,139-46.21E,177,12.602,
763,2024/2/3,12:42,35-13.57N,139-46.22E,177,12.902,
764,2024/2/3,12:43,35-13.36N,139-46.23E,176,13.016,
765,2024/2/3,12:44,35-13.13N,139-46.25E,176,13.202,
766,2024/2/3,12:45,35-12.90N,139-46.24E,183,13.202,
767,2024/2/3,12:46,35-12.69N,139-46.18E,194,13.029,
768,2024/2/3,12:47,35-12.44N,139-46.10E,194,13.589,
769,2024/2/3,12:48,35-12.17N,139-46.02E,194,15.679,
770,2024/2/3,12:49,35-11.90N,139-45.93E,194,15.704,
771,2024/2/3,12:50,35-11.63N,139-45.84E,194,15.447,
772,2024/2/3,12:51,35-11.35N,139-45.75E,195,15.543,
773,2024/2/3,12:52,35-11.08N,139-45.66E,195,15.719,
774,2024/2/3,12:53,35-10.80N,139-45.57E,193,15.962,
775,2024/2/3,12:54,35-10.51N,139-45.49E,192,16.068,
776,2024/2/3,12:55,35-10.24N,139-45.41E,193,16.09,
777,2024/2/3,12:56,35-09.96N,139-45.32E,193,16.115,
778,2024/2/3,12:57,35-09.67N,139-45.24E,193,16.105,
779,2024/2/3,12:58,35-09.40N,139-45.16E,193,16.116,
780,2024/2/3,12:59,35-09.11N,139-45.07E,193,16.099,
781,2024/2/3,13:00,35-08.83N,139-44.99E,193,16.068,
782,2024/2/3,13:01,35-08.55N,139-44.91E,193,16.05,
783,2024/2/3,13:02,35-08.25N,139-44.82E,193,16.019,
784,2024/2/3,13:03,35-07.98N,139-44.74E,193,15.989,
785,2024/2/3,13:04,35-07.69N,139-44.66E,193,15.968,
786,2024/2/3,13:05,35-07.42N,139-44.57E,193,15.934,
787,2024/2/3,13:06,35-07.13N,139-44.49E,193,15.865,
788,2024/2/3,13:07,35-06.83N,139-44.40E,193,15.83,
789,2024/2/3,13:08,35-06.55N,139-44.32E,193,15.816,
790,2024/2/3,13:09,35-06.27N,139-44.23E,192,15.791,
791,2024/2/3,13:10,35-05.98N,139-44.16E,191,16.063,
792,2024/2/3,13:11,35-05.70N,139-44.08E,192,16.257,
793,2024/2/3,13:12,35-05.42N,139-44.01E,192,16.299,
794,2024/2/3,13:13,35-05.13N,139-43.93E,193,16.325,
795,2024/2/3,13:14,35-04.85N,139-43.85E,192,16.383,
796,2024/2/3,13:15,35-04.58N,139-43.77E,192,16.456,
797,2024/2/3,13:16,35-04.29N,139-43.70E,192,16.538,
798,2024/2/3,13:17,35-04.01N,139-43.62E,192,16.577,
799,2024/2/3,13:18,35-03.73N,139-43.54E,192,16.608,
800,2024/2/3,13:19,35-03.44N,139-43.47E,188,16.855,
801,2024/2/3,13:20,35-03.16N,139-43.42E,189,17.461,
802,2024/2/3,13:21,35-02.88N,139-43.36E,190,17.606,
803,2024/2/3,13:22,35-02.59N,139-43.29E,190,17.696,
804,2024/2/3,13:23,35-02.30N,139-43.23E,190,17.764,
805,2024/2/3,13:24,35-02.03N,139-43.17E,189,17.835,
806,2024/2/3,13:25,35-01.75N,139-43.11E,190,17.915,
807,2024/2/3,13:26,35-01.47N,139-43.05E,189,17.963,
808,2024/2/3,13:27,35-01.18N,139-42.98E,189,17.99,
809,2024/2/3,13:28,35-00.90N,139-42.92E,189,18.001,
810,2024/2/3,13:29,35-00.61N,139-42.86E,189,18.02,
811,2024/2/3,13:30,35-00.32N,139-42.80E,190,18.03,
812,2024/2/3,13:31,35-00.04N,139-42.73E,191,18.028,
813,2024/2/3,13:32,34-59.76N,139-42.65E,192,18.046,
814,2024/2/3,13:33,34-59.48N,139-42.58E,192,18.061,
815,2024/2/3,13:34,34-59.19N,139-42.50E,192,18.082,
816,2024/2/3,13:35,34-58.90N,139-42.42E,192,18.088,
817,2024/2/3,13:36,34-58.62N,139-42.34E,192,18.083,
818,2024/2/3,13:37,34-58.33N,139-42.28E,187,18.06,
819,2024/2/3,13:38,34-58.06N,139-42.31E,167,18.029,
820,2024/2/3,13:39,34-57.80N,139-42.45E,149,18.003,
821,2024/2/3,13:40,34-57.57N,139-42.66E,143,17.981,
822,2024/2/3,13:41,34-57.34N,139-42.87E,143,17.964,
823,2024/2/3,13:42,34-57.09N,139-43.09E,144,17.967,
824,2024/2/3,13:43,34-56.84N,139-43.30E,144,17.968,
825,2024/2/3,13:44,34-56.60N,139-43.51E,144,17.955,
826,2024/2/3,13:45,34-56.35N,139-43.72E,144,17.928,
827,2024/2/3,13:46,34-56.09N,139-43.94E,145,17.897,
828,2024/2/3,13:47,34-55.85N,139-44.15E,144,17.886,
829,2024/2/3,13:48,34-55.59N,139-44.37E,144,17.869,
830,2024/2/3,13:49,34-55.35N,139-44.57E,144,17.852,
831,2024/2/3,13:50,34-55.10N,139-44.79E,144,17.857,
832,2024/2/3,13:51,34-54.84N,139-45.01E,144,17.868,
833,2024/2/3,13:52,34-54.58N,139-45.23E,145,17.874,
834,2024/2/3,13:53,34-54.36N,139-45.44E,141,17.872,
835,2024/2/3,13:54,34-54.11N,139-45.69E,137,17.874,
836,2024/2/3,13:55,34-53.91N,139-45.94E,129,17.854,
837,2024/2/3,13:56,34-53.75N,139-46.25E,122,17.839,
838,2024/2/3,13:57,34-53.58N,139-46.56E,123,17.86,
839,2024/2/3,13:58,34-53.42N,139-46.85E,124,17.854,
840,2024/2/3,13:59,34-53.24N,139-47.17E,125,17.847,
841,2024/2/3,14:00,34-53.05N,139-47.48E,124,17.791,
842,2024/2/3,14:01,34-52.88N,139-47.79E,125,17.769,
843,2024/2/3,14:02,34-52.69N,139-48.11E,125,17.632,
844,2024/2/3,14:03,34-52.50N,139-48.41E,125,17.372,
845,2024/2/3,14:04,34-52.32N,139-48.73E,125,17.227,
846,2024/2/3,14:05,34-52.14N,139-49.05E,124,17.109,
847,2024/2/3,14:06,34-51.97N,139-49.34E,124,17.108,
848,2024/2/3,14:07,34-51.80N,139-49.65E,124,17.12,
849,2024/2/3,14:08,34-51.64N,139-49.95E,123,17.088,
850,2024/2/3,14:09,34-51.48N,139-50.25E,122,17.07,
851,2024/2/3,14:10,34-51.31N,139-50.57E,119,17.092,
852,2024/2/3,14:11,34-51.23N,139-50.88E,101,17.091,
853,2024/2/3,14:12,34-51.22N,139-51.23E,90,17.078,
854,2024/2/3,14:13,34-51.22N,139-51.57E,89,17.053,
855,2024/2/3,14:14,34-51.22N,139-51.92E,89,17.022,
856,2024/2/3,14:15,34-51.22N,139-52.28E,90,16.988,
857,2024/2/3,14:16,34-51.21N,139-52.62E,90,16.943,
858,2024/2/3,14:17,34-51.21N,139-52.97E,91,16.842,
859,2024/2/3,14:18,34-51.20N,139-53.32E,91,16.736,
860,2024/2/3,14:19,34-51.19N,139-53.69E,90,16.723,
861,2024/2/3,14:20,34-51.19N,139-54.04E,91,16.714,
862,2024/2/3,14:21,34-51.18N,139-54.36E,92,16.721,
863,2024/2/3,14:22,34-51.17N,139-54.71E,92,16.718,
864,2024/2/3,14:23,34-51.16N,139-55.05E,91,16.695,
865,2024/2/3,14:24,34-51.16N,139-55.39E,91,16.714,
866,2024/2/3,14:25,34-51.15N,139-55.75E,92,16.649,
867,2024/2/3,14:26,34-51.14N,139-56.08E,91,16.644,
868,2024/2/3,14:27,34-51.13N,139-56.43E,91,16.652,
869,2024/2/3,14:28,34-51.12N,139-56.77E,92,16.65,
870,2024/2/3,14:29,34-51.13N,139-57.11E,81,16.656,
871,2024/2/3,14:30,34-51.23N,139-57.42E,63,16.662,
872,2024/2/3,14:31,34-51.36N,139-57.71E,60,16.674,
873,2024/2/3,14:32,34-51.49N,139-58.01E,63,16.697,
874,2024/2/3,14:33,34-51.62N,139-58.34E,64,16.63,
875,2024/2/3,14:34,34-51.74N,139-58.64E,64,16.628,
876,2024/2/3,14:35,34-51.86N,139-58.96E,63,16.335,
877,2024/2/3,14:36,34-51.99N,139-59.27E,64,16.199,
878,2024/2/3,14:37,34-52.10N,139-59.57E,65,16.19,
879,2024/2/3,14:38,34-52.22N,139-59.88E,65,16.192,
880,2024/2/3,14:39,34-52.35N,140-00.18E,61,16.181,
881,2024/2/3,14:40,34-52.48N,140-00.48E,61,16.165,
882,2024/2/3,14:41,34-52.62N,140-00.78E,61,16.162,
883,2024/2/3,14:42,34-52.75N,140-01.06E,61,16.159,
884,2024/2/3,14:43,34-52.88N,140-01.36E,61,16.233,
885,2024/2/3,14:44,34-53.01N,140-01.66E,61,16.33,
886,2024/2/3,14:45,34-53.14N,140-01.94E,59,16.352,
887,2024/2/3,14:46,34-53.27N,140-02.22E,58,16.338,
888,2024/2/3,14:47,34-53.41N,140-02.50E,60,16.272,
889,2024/2/3,14:48,34-53.55N,140-02.80E,59,16.214,
890,2024/2/3,14:49,34-53.69N,140-03.08E,59,16.236,
891,2024/2/3,14:50,34-53.83N,140-03.37E,59,16.267,
892,2024/2/3,14:51,34-53.97N,140-03.66E,59,16.299,
893,2024/2/3,14:52,34-54.11N,140-03.96E,60,16.269,
894,2024/2/3,14:53,34-54.25N,140-04.25E,60,16.206,
895,2024/2/3,14:54,34-54.38N,140-04.54E,59,16.169,
896,2024/2/3,14:55,34-54.53N,140-04.84E,58,16.235,
897,2024/2/3,14:56,34-54.68N,140-05.12E,58,16.528,
898,2024/2/3,14:57,34-54.81N,140-05.43E,62,16.764,
899,2024/2/3,14:58,34-54.95N,140-05.74E,58,16.876,
900,2024/2/3,14:59,34-55.11N,140-06.01E,54,16.867,
901,2024/2/3,15:00,34-55.30N,140-06.34E,55,16.84,
902,2024/2/3,15:01,34-55.47N,140-06.64E,55,16.809,
903,2024/2/3,15:02,34-55.60N,140-06.87E,55,16.874,
904,2024/2/3,15:03,34-55.76N,140-07.15E,54,17.022,
905,2024/2/3,15:04,34-55.93N,140-07.44E,54,17.066,
906,2024/2/3,15:05,34-56.10N,140-07.71E,53,17.095,
907,2024/2/3,15:06,34-56.28N,140-08.00E,52,17.183,
908,2024/2/3,15:07,34-56.45N,140-08.27E,52,17.316,
909,2024/2/3,15:08,34-56.64N,140-08.55E,51,17.529,
910,2024/2/3,15:09,34-56.82N,140-08.82E,50,17.863,
911,2024/2/3,15:10,34-57.02N,140-09.11E,50,18.223,
912,2024/2/3,15:11,34-57.21N,140-09.38E,51,18.631,
913,2024/2/3,15:12,34-57.38N,140-09.67E,55,18.813,
914,2024/2/3,15:13,34-57.55N,140-09.97E,55,18.894,
915,2024/2/3,15:14,34-57.73N,140-10.27E,54,18.953,
916,2024/2/3,15:15,34-57.89N,140-10.57E,57,19.087,
917,2024/2/3,15:16,34-58.05N,140-10.87E,57,19.219,
918,2024/2/3,15:17,34-58.21N,140-11.18E,58,19.294,
919,2024/2/3,15:18,34-58.36N,140-11.51E,61,19.341,
920,2024/2/3,15:19,34-58.50N,140-11.83E,61,19.366,
921,2024/2/3,15:20,34-58.64N,140-12.16E,62,19.411,
922,2024/2/3,15:21,34-58.79N,140-12.49E,62,19.439,
923,2024/2/3,15:22,34-58.93N,140-12.82E,62,19.474,
924,2024/2/3,15:23,34-59.07N,140-13.16E,62,19.502,
925,2024/2/3,15:24,34-59.22N,140-13.50E,62,19.542,
926,2024/2/3,15:25,34-59.35N,140-13.83E,63,19.578,
927,2024/2/3,15:26,34-59.50N,140-14.17E,62,19.608,
928,2024/2/3,15:27,34-59.64N,140-14.51E,63,19.622,
929,2024/2/3,15:28,34-59.78N,140-14.85E,63,19.638,
930,2024/2/3,15:29,34-59.92N,140-15.19E,63,19.646,
931,2024/2/3,15:30,35-00.06N,140-15.54E,64,19.652,
932,2024/2/3,15:31,35-00.19N,140-15.87E,63,19.651,
933,2024/2/3,15:32,35-00.33N,140-16.21E,63,19.672,
934,2024/2/3,15:33,35-00.47N,140-16.56E,64,19.681,
935,2024/2/3,15:34,35-00.60N,140-16.88E,64,19.683,
936,2024/2/3,15:35,35-00.74N,140-17.23E,64,19.688,
937,2024/2/3,15:36,35-00.87N,140-17.58E,64,19.703,
938,2024/2/3,15:37,35-01.01N,140-17.91E,64,19.708,
939,2024/2/3,15:38,35-01.14N,140-18.26E,64,19.722,
940,2024/2/3,15:39,35-01.27N,140-18.59E,65,19.735,
941,2024/2/3,15:40,35-01.40N,140-18.93E,64,19.745,
942,2024/2/3,15:41,35-01.55N,140-19.29E,62,19.758,
943,2024/2/3,15:42,35-01.69N,140-19.60E,62,19.764,
944,2024/2/3,15:43,35-01.84N,140-19.95E,62,19.773,
945,2024/2/3,15:44,35-01.98N,140-20.28E,62,19.78,
946,2024/2/3,15:45,35-02.12N,140-20.61E,63,19.786,
947,2024/2/3,15:46,35-02.26N,140-20.96E,62,19.797,
948,2024/2/3,15:47,35-02.41N,140-21.29E,62,19.812,
949,2024/2/3,15:48,35-02.55N,140-21.63E,62,19.814,
950,2024/2/3,15:49,35-02.69N,140-21.98E,63,19.831,
951,2024/2/3,15:50,35-02.83N,140-22.30E,62,19.855,
952,2024/2/3,15:51,35-02.97N,140-22.64E,62,19.865,
953,2024/2/3,15:52,35-03.13N,140-22.95E,60,19.874,
954,2024/2/3,15:53,35-03.28N,140-23.28E,60,19.886,
955,2024/2/3,15:54,35-03.43N,140-23.61E,60,19.898,
956,2024/2/3,15:55,35-03.59N,140-23.94E,60,19.915,
957,2024/2/3,15:56,35-03.74N,140-24.27E,60,19.924,
958,2024/2/3,15:57,35-03.89N,140-24.60E,61,19.931,
959,2024/2/3,15:58,35-04.05N,140-24.94E,60,19.934,
960,2024/2/3,15:59,35-04.20N,140-25.27E,60,19.937,
961,2024/2/3,16:00,35-04.36N,140-25.61E,60,19.931,
962,2024/2/3,16:01,35-04.52N,140-25.95E,60,19.935,
963,2024/2/3,16:02,35-04.68N,140-26.28E,60,19.939,
964,2024/2/3,16:03,35-04.84N,140-26.63E,60,19.931,
965,2024/2/3,16:04,35-05.00N,140-26.96E,60,19.932,
966,2024/2/3,16:05,35-05.16N,140-27.32E,60,19.936,
967,2024/2/3,16:06,35-05.32N,140-27.66E,60,19.939,
968,2024/2/3,16:07,35-05.48N,140-28.00E,60,19.944,
969,2024/2/3,16:08,35-05.65N,140-28.35E,60,19.945,
970,2024/2/3,16:09,35-05.80N,140-28.70E,60,19.948,
971,2024/2/3,16:10,35-05.97N,140-29.05E,60,19.948,
972,2024/2/3,16:11,35-06.13N,140-29.41E,61,19.944,
973,2024/2/3,16:12,35-06.29N,140-29.74E,60,19.942,
974,2024/2/3,16:13,35-06.46N,140-30.09E,60,19.943,
975,2024/2/3,16:14,35-06.61N,140-30.43E,60,19.943,
976,2024/2/3,16:15,35-06.78N,140-30.80E,60,19.944,
977,2024/2/3,16:16,35-06.93N,140-31.12E,59,19.94,
978,2024/2/3,16:17,35-07.15N,140-31.40E,42,19.939,
979,2024/2/3,16:18,35-07.39N,140-31.64E,37,19.94,
980,2024/2/3,16:19,35-07.64N,140-31.87E,37,19.936,
981,2024/2/3,16:20,35-07.90N,140-32.11E,36,19.93,
982,2024/2/3,16:21,35-08.15N,140-32.34E,37,19.936,
983,2024/2/3,16:22,35-08.40N,140-32.58E,37,19.927,
984,2024/2/3,16:23,35-08.66N,140-32.84E,37,19.92,
985,2024/2/3,16:24,35-08.90N,140-33.06E,38,19.914,
986,2024/2/3,16:25,35-09.16N,140-33.31E,38,19.903,
987,2024/2/3,16:26,35-09.41N,140-33.54E,36,19.903,
988,2024/2/3,16:27,35-09.67N,140-33.77E,36,19.891,
989,2024/2/3,16:28,35-09.93N,140-34.01E,37,19.878,
990,2024/2/3,16:29,35-10.19N,140-34.24E,36,19.869,
991,2024/2/3,16:30,35-10.47N,140-34.49E,35,19.862,
992,2024/2/3,16:31,35-10.72N,140-34.71E,35,19.858,
993,2024/2/3,16:32,35-10.99N,140-34.95E,36,19.849,
994,2024/2/3,16:33,35-11.26N,140-35.19E,35,19.832,
995,2024/2/3,16:34,35-11.52N,140-35.41E,36,19.814,
996,2024/2/3,16:35,35-11.78N,140-35.66E,36,19.809,
997,2024/2/3,16:36,35-12.05N,140-35.89E,34,19.798,
998,2024/2/3,16:37,35-12.32N,140-36.10E,33,19.773,
999,2024/2/3,16:38,35-12.59N,140-36.32E,33,19.727,
1000,2024/2/3,16:39,35-12.87N,140-36.53E,32,19.565,
1001,2024/2/3,16:40,35-13.15N,140-36.75E,30,19.067,
1002,2024/2/3,16:41,35-13.42N,140-36.94E,31,18.293,
1003,2024/2/3,16:42,35-13.69N,140-37.14E,31,18.026,
1004,2024/2/3,16:43,35-13.95N,140-37.34E,32,17.88,
1005,2024/2/3,16:44,35-14.20N,140-37.54E,34,17.795,
1006,2024/2/3,16:45,35-14.46N,140-37.76E,34,17.656,
1007,2024/2/3,16:46,35-14.71N,140-37.96E,33,17.59,
1008,2024/2/3,16:47,35-14.96N,140-38.16E,33,17.47,
1009,2024/2/3,16:48,35-15.22N,140-38.37E,33,17.393,
1010,2024/2/3,16:49,35-15.47N,140-38.56E,32,17.316,
1011,2024/2/3,16:50,35-15.72N,140-38.76E,32,17.264,
1012,2024/2/3,16:51,35-15.97N,140-38.95E,32,17.19,
1013,2024/2/3,16:52,35-16.23N,140-39.15E,31,17.135,
1014,2024/2/3,16:53,35-16.48N,140-39.35E,32,17.041,
1015,2024/2/3,16:54,35-16.73N,140-39.54E,32,16.979,
1016,2024/2/3,16:55,35-16.98N,140-39.74E,32,16.881,
1017,2024/2/3,16:56,35-17.23N,140-39.93E,32,16.802,
1018,2024/2/3,16:57,35-17.49N,140-40.12E,32,16.729,
1019,2024/2/3,16:58,35-17.74N,140-40.32E,31,16.652,
1020,2024/2/3,16:59,35-18.00N,140-40.52E,32,16.569,
1021,2024/2/3,17:00,35-18.25N,140-40.71E,32,16.445,
1022,2024/2/3,17:01,35-18.49N,140-40.91E,33,16.398,
1023,2024/2/3,17:02,35-18.74N,140-41.11E,32,16.417,
1024,2024/2/3,17:03,35-19.00N,140-41.31E,33,16.431,
1025,2024/2/3,17:04,35-19.25N,140-41.52E,33,16.477,
1026,2024/2/3,17:05,35-19.51N,140-41.73E,33,16.509,
1027,2024/2/3,17:06,35-19.74N,140-41.92E,33,16.512,
1028,2024/2/3,17:07,35-19.99N,140-42.12E,33,16.501,
1029,2024/2/3,17:08,35-20.25N,140-42.33E,33,16.493,
1030,2024/2/3,17:09,35-20.49N,140-42.53E,32,16.596,
1031,2024/2/3,17:10,35-20.74N,140-42.73E,33,16.762,
1032,2024/2/3,17:11,35-20.99N,140-42.93E,33,16.87,
1033,2024/2/3,17:12,35-21.23N,140-43.12E,33,16.968,
1034,2024/2/3,17:13,35-21.49N,140-43.32E,32,17.032,
1035,2024/2/3,17:14,35-21.74N,140-43.52E,34,17.054,
1036,2024/2/3,17:15,35-21.97N,140-43.72E,34,16.994,
1037,2024/2/3,17:16,35-22.21N,140-43.92E,33,16.948,
1038,2024/2/3,17:17,35-22.45N,140-44.12E,34,16.898,
1039,2024/2/3,17:18,35-22.70N,140-44.32E,34,16.842,
1040,2024/2/3,17:19,35-22.94N,140-44.52E,34,16.792,
1041,2024/2/3,17:20,35-23.18N,140-44.72E,33,16.769,
1042,2024/2/3,17:21,35-23.41N,140-44.92E,34,16.77,
1043,2024/2/3,17:22,35-23.65N,140-45.12E,34,16.769,
1044,2024/2/3,17:23,35-23.90N,140-45.32E,34,16.788,
1045,2024/2/3,17:24,35-24.14N,140-45.52E,34,16.799,
1046,2024/2/3,17:25,35-24.38N,140-45.72E,34,16.813,
1047,2024/2/3,17:26,35-24.62N,140-45.92E,34,16.839,
1048,2024/2/3,17:27,35-24.86N,140-46.13E,34,16.855,
1049,2024/2/3,17:28,35-25.11N,140-46.33E,34,16.865,
1050,2024/2/3,17:29,35-25.34N,140-46.54E,35,16.881,
1051,2024/2/3,17:30,35-25.59N,140-46.75E,34,16.875,
1052,2024/2/3,17:31,35-25.83N,140-46.94E,34,16.869,
1053,2024/2/3,17:32,35-26.07N,140-47.16E,34,16.86,
1054,2024/2/3,17:33,35-26.31N,140-47.36E,34,16.845,
1055,2024/2/3,17:34,35-26.55N,140-47.57E,35,16.805,
1056,2024/2/3,17:35,35-26.80N,140-47.78E,35,16.746,
1057,2024/2/3,17:36,35-27.03N,140-47.99E,35,16.765,
1058,2024/2/3,17:37,35-27.27N,140-48.19E,35,16.722,
1059,2024/2/3,17:38,35-27.52N,140-48.41E,35,16.654,
1060,2024/2/3,17:39,35-27.77N,140-48.63E,35,16.647,
1061,2024/2/3,17:40,35-28.00N,140-48.84E,36,16.546,
1062,2024/2/3,17:41,35-28.25N,140-49.05E,35,16.431,
1063,2024/2/3,17:42,35-28.47N,140-49.25E,36,16.459,
1064,2024/2/3,17:43,35-28.71N,140-49.47E,36,16.397,
1065,2024/2/3,17:44,35-28.96N,140-49.68E,36,16.27,
1066,2024/2/3,17:45,35-29.19N,140-49.89E,36,15.931,
1067,2024/2/3,17:46,35-29.43N,140-50.09E,33,15.774,
1068,2024/2/3,17:47,35-29.67N,140-50.28E,32,15.591,
1069,2024/2/3,17:48,35-29.91N,140-50.47E,34,15.431,
1070,2024/2/3,17:49,35-30.15N,140-50.67E,33,15.395,
1071,2024/2/3,17:50,35-30.40N,140-50.87E,33,15.389,
1072,2024/2/3,17:51,35-30.62N,140-51.05E,33,15.403,
1073,2024/2/3,17:52,35-30.86N,140-51.25E,34,15.391,
1074,2024/2/3,17:53,35-31.10N,140-51.45E,33,15.349,
1075,2024/2/3,17:54,35-31.33N,140-51.63E,34,15.334,
1076,2024/2/3,17:55,35-31.57N,140-51.83E,33,15.344,
1077,2024/2/3,17:56,35-31.80N,140-52.02E,34,15.341,
1078,2024/2/3,17:57,35-32.04N,140-52.22E,34,15.336,
1079,2024/2/3,17:58,35-32.29N,140-52.42E,33,15.321,
1080,2024/2/3,17:59,35-32.53N,140-52.62E,33,15.31,
1081,2024/2/3,18:00,35-32.78N,140-52.83E,34,15.307,
1082,2024/2/3,18:01,35-33.01N,140-53.02E,33,15.288,
1083,2024/2/3,18:02,35-33.25N,140-53.22E,33,15.261,
1084,2024/2/3,18:03,35-33.50N,140-53.42E,33,15.243,
1085,2024/2/3,18:04,35-33.78N,140-53.64E,33,15.212,
1086,2024/2/3,18:05,35-34.00N,140-53.82E,33,15.179,
1087,2024/2/3,18:06,35-34.25N,140-54.01E,30,15.236,
1088,2024/2/3,18:07,35-34.49N,140-54.19E,32,15.458,
1089,2024/2/3,18:08,35-34.73N,140-54.37E,32,15.584,
1090,2024/2/3,18:09,35-34.96N,140-54.55E,32,15.73,
1091,2024/2/3,18:10,35-35.20N,140-54.74E,32,15.778,
1092,2024/2/3,18:11,35-35.40N,140-54.90E,32,15.779,
1093,2024/2/3,18:12,35-35.62N,140-55.07E,31,15.714,
1094,2024/2/3,18:13,35-35.86N,140-55.25E,32,15.754,
1095,2024/2/3,18:14,35-36.09N,140-55.43E,32,15.752,
1096,2024/2/3,18:15,35-36.33N,140-55.62E,33,15.733,
1097,2024/2/3,18:16,35-36.55N,140-55.80E,32,15.725,
1098,2024/2/3,18:17,35-36.79N,140-55.98E,32,15.719,
1099,2024/2/3,18:18,35-37.07N,140-56.16E,26,15.678,
1100,2024/2/3,18:19,35-37.31N,140-56.30E,24,15.353,
1101,2024/2/3,18:20,35-37.54N,140-56.41E,20,15.468,
1102,2024/2/3,18:21,35-37.83N,140-56.52E,15,15.187,
1103,2024/2/3,18:22,35-38.10N,140-56.61E,14,14.907,
1104,2024/2/3,18:23,35-38.34N,140-56.68E,15,14.874,
1105,2024/2/3,18:24,35-38.58N,140-56.77E,15,14.816,
1106,2024/2/3,18:25,35-38.85N,140-56.85E,15,14.836,
1107,2024/2/3,18:26,35-38.97N,140-56.89E,14,14.875,
1108,2024/2/3,18:27,35-39.37N,140-57.02E,14,14.876,
1109,2024/2/3,18:28,35-39.63N,140-57.10E,14,14.902,
1110,2024/2/3,18:29,35-39.90N,140-57.18E,12,15.209,
1111,2024/2/3,18:30,35-40.16N,140-57.26E,13,15.695,
1112,2024/2/3,18:31,35-40.44N,140-57.34E,14,15.811,
1113,2024/2/3,18:32,35-40.70N,140-57.42E,14,15.84,
1114,2024/2/3,18:33,35-40.97N,140-57.50E,12,15.84,
1115,2024/2/3,18:34,35-41.25N,140-57.55E,6,15.822,
1116,2024/2/3,18:35,35-41.52N,140-57.58E,5,15.815,
1117,2024/2/3,18:36,35-41.80N,140-57.62E,5,15.823,
1118,2024/2/3,18:37,35-42.09N,140-57.65E,6,15.818,